Torna al catalogo

COSMOS 2251 DEB

AttivoLEO
NORAD 37993·DEBRIS·🇷🇺 Russia

Lanciato Jun 16, 1993 da Plesetsk Cosmodrome

Loading…

Prossimi Passaggi (prossime 24 ore)

TLE

AggiornatoSource: Space-Track

Epoca: Sep 13, 2026, 13:31 UTC

1 37993U 93036BQU 26256.56323550  .00003156  00000-0  62448-3 0  9994
2 37993  74.0252   0.7575 0021459  18.4262 341.7677 14.62633116693322

Traccia COSMOS 2251 DEB in tempo reale con AllMySat

Download on the App Store